DEALP EDDH-EDHN

Flight info

Callsign DEALP
Flight time 0h 22m
Altitude 4000
Route DCT 5335N00954E DCT 5333N00949E 5332N00957E 5333N00959E 5333N01000E 5343N00959E 5346N00957E DCT 5403N00956E DCT 5404N00959E DCT
Aircraft C172/L-SFG/C

Departure

Time 2026-04-26 18:14
Airport Hamburg Helmut Schmidt Airport (EDDH)

Arrival

Time 2026-04-26 18:36
Airport Neumünster Airport (EDHN)
Time Latitude Longitude Altitude Speed Heading
2026-04-26 17:49 53.62673 9.98757 45 ft 0 kts 63°
2026-04-26 17:50 53.62647 9.98781 45 ft 0 kts 62°
2026-04-26 18:07 53.62648 9.98783 45 ft 3 kts 43°
2026-04-26 18:07 53.62651 9.98763 45 ft 4 kts 229°
2026-04-26 18:08 53.62647 9.98705 45 ft 4 kts 310°
2026-04-26 18:08 53.62679 9.98675 45 ft 5 kts 333°
2026-04-26 18:08 53.62686 9.98669 45 ft 0 kts 332°
2026-04-26 18:10 53.62694 9.98661 45 ft 7 kts 330°
2026-04-26 18:10 53.62763 9.98697 45 ft 14 kts 52°
2026-04-26 18:10 53.62823 9.98820 45 ft 13 kts 49°
2026-04-26 18:10 53.62880 9.98937 45 ft 13 kts 49°
2026-04-26 18:11 53.62934 9.99046 45 ft 12 kts 50°
2026-04-26 18:11 53.62985 9.99147 45 ft 11 kts 52°
2026-04-26 18:11 53.63036 9.99247 45 ft 12 kts 41°
2026-04-26 18:11 53.63093 9.99295 45 ft 2 kts 15°
2026-04-26 18:12 53.63096 9.99297 45 ft 0 kts 15°
2026-04-26 18:12 53.63152 9.99320 45 ft 18 kts 15°
2026-04-26 18:13 53.63298 9.99352 46 ft 25 kts 351°
2026-04-26 18:13 53.63534 9.99164 47 ft 58 kts 332°
2026-04-26 18:13 53.63957 9.98783 200 ft 76 kts 329°
2026-04-26 18:13 53.64264 9.98508 384 ft 75 kts 330°
2026-04-26 18:14 53.64965 9.98625 759 ft 78 kts
2026-04-26 18:14 53.65508 9.98747 1035 ft 89 kts
2026-04-26 18:14 53.66068 9.99126 1381 ft 88 kts 22°
2026-04-26 18:14 53.66653 9.99429 1537 ft 96 kts
2026-04-26 18:15 53.67365 9.99670 1619 ft 104 kts 10°
2026-04-26 18:15 53.68078 9.99959 1765 ft 106 kts
2026-04-26 18:15 53.68836 10.00045 1888 ft 109 kts 358°
2026-04-26 18:15 53.69580 9.99969 2058 ft 108 kts 350°
2026-04-26 18:16 53.70343 9.99927 2186 ft 112 kts
2026-04-26 18:16 53.71892 10.00398 2424 ft 114 kts
2026-04-26 18:16 53.72694 10.00561 2474 ft 119 kts
2026-04-26 18:17 53.73498 10.00724 2449 ft 117 kts
2026-04-26 18:17 53.74334 10.00736 2243 ft 118 kts 356°
2026-04-26 18:17 53.75121 10.00695 2192 ft 113 kts 353°
2026-04-26 18:17 53.75910 10.00573 2064 ft 113 kts 349°
2026-04-26 18:18 53.76653 10.00425 2036 ft 108 kts 352°
2026-04-26 18:18 53.77432 10.00358 1876 ft 114 kts
2026-04-26 18:18 53.78202 10.00668 1813 ft 114 kts 12°
2026-04-26 18:18 53.78972 10.00922 1790 ft 108 kts
2026-04-26 18:19 53.79705 10.00836 1665 ft 112 kts 339°
2026-04-26 18:19 53.80420 10.00337 1610 ft 107 kts 338°
2026-04-26 18:19 53.81158 10.00158 1567 ft 104 kts 356°
2026-04-26 18:19 53.81873 10.00068 1500 ft 109 kts 346°
2026-04-26 18:20 53.82605 9.99850 1475 ft 106 kts 344°
2026-04-26 18:20 53.83280 9.99645 1723 ft 98 kts 349°
2026-04-26 18:20 53.84009 9.99675 1809 ft 109 kts
2026-04-26 18:20 53.84515 9.99770 1938 ft 109 kts
2026-04-26 18:21 53.85516 10.00026 2143 ft 111 kts
2026-04-26 18:21 53.86302 10.00134 2239 ft 113 kts
2026-04-26 18:21 53.87095 10.00347 2321 ft 120 kts
2026-04-26 18:21 53.87916 10.00502 2452 ft 117 kts
2026-04-26 18:22 53.88733 10.00630 2565 ft 118 kts
2026-04-26 18:22 53.89556 10.00666 2693 ft 118 kts 356°
2026-04-26 18:22 53.90375 10.00657 2816 ft 118 kts 354°
2026-04-26 18:22 53.91190 10.00634 2978 ft 114 kts 355°
2026-04-26 18:23 53.92013 10.00618 3006 ft 122 kts 353°
2026-04-26 18:23 53.92848 10.00413 3079 ft 119 kts 335°
2026-04-26 18:23 53.93354 9.99371 3028 ft 120 kts 293°
2026-04-26 18:23 53.93783 9.98114 2912 ft 127 kts 299°
2026-04-26 18:24 53.94263 9.96849 2747 ft 131 kts 304°
2026-04-26 18:24 53.94959 9.95903 2577 ft 135 kts 338°
2026-04-26 18:24 53.95864 9.95479 2058 ft 133 kts 345°
2026-04-26 18:24 53.96680 9.95229 1679 ft 113 kts 349°
2026-04-26 18:25 53.97420 9.94989 1459 ft 103 kts 343°
2026-04-26 18:25 53.98118 9.94641 1282 ft 111 kts 339°
2026-04-26 18:25 53.98836 9.94169 1136 ft 110 kts 337°
2026-04-26 18:25 53.99548 9.93756 1044 ft 114 kts 342°
2026-04-26 18:26 54.00072 9.92964 1077 ft 99 kts 280°
2026-04-26 18:26 53.99698 9.92021 972 ft 105 kts 204°
2026-04-26 18:26 53.98927 9.91903 856 ft 110 kts 192°
2026-04-26 18:26 53.98176 9.91676 978 ft 113 kts 200°
2026-04-26 18:27 53.97382 9.91302 895 ft 131 kts 202°
2026-04-26 18:27 53.96564 9.90860 871 ft 119 kts 202°
2026-04-26 18:27 53.95831 9.90464 785 ft 109 kts 203°
2026-04-26 18:27 53.95092 9.90107 805 ft 113 kts 199°
2026-04-26 18:28 53.94301 9.89784 736 ft 126 kts 199°
2026-04-26 18:28 53.93500 9.89531 644 ft 113 kts 200°
2026-04-26 18:28 53.92799 9.89110 769 ft 105 kts 236°
2026-04-26 18:28 53.92814 9.87970 707 ft 101 kts 325°
2026-04-26 18:29 53.93368 9.88399 667 ft 122 kts 72°
2026-04-26 18:29 53.93937 9.89380 649 ft 118 kts 11°
2026-04-26 18:29 53.94648 9.89709 1010 ft 99 kts
2026-04-26 18:29 53.95373 9.90095 1082 ft 107 kts 12°
2026-04-26 18:30 53.96148 9.90348 1117 ft 114 kts
2026-04-26 18:30 53.96935 9.90689 1151 ft 117 kts 18°
2026-04-26 18:30 53.97677 9.91220 1248 ft 117 kts 21°
2026-04-26 18:30 53.98409 9.91790 1351 ft 115 kts 21°
2026-04-26 18:31 53.99133 9.92436 1033 ft 124 kts 26°
2026-04-26 18:31 53.99863 9.93090 803 ft 115 kts 15°
2026-04-26 18:31 54.00652 9.93186 862 ft 108 kts 355°
2026-04-26 18:31 54.01370 9.93173 1183 ft 92 kts 359°
2026-04-26 18:32 54.01969 9.93186 1475 ft 93 kts 355°
2026-04-26 18:32 54.02696 9.93117 1444 ft 110 kts 353°
2026-04-26 18:32 54.03447 9.92974 1568 ft 109 kts 349°
2026-04-26 18:32 54.04202 9.92767 1586 ft 110 kts 347°
2026-04-26 18:33 54.05015 9.92517 1120 ft 131 kts 347°
2026-04-26 18:33 54.05851 9.92309 973 ft 116 kts 351°
2026-04-26 18:33 54.06646 9.92221 862 ft 108 kts 355°
2026-04-26 18:33 54.07360 9.92246 804 ft 94 kts 360°
2026-04-26 18:34 54.07963 9.92393 798 ft 84 kts 14°
2026-04-26 18:34 54.08325 9.93133 845 ft 90 kts 67°
2026-04-26 18:34 54.08454 9.94243 787 ft 96 kts 75°
2026-04-26 18:34 54.08605 9.95342 730 ft 97 kts 74°
2026-04-26 18:35 54.08696 9.96426 849 ft 83 kts 112°
2026-04-26 18:35 54.08185 9.96940 900 ft 88 kts 182°
2026-04-26 18:35 54.07907 9.96269 644 ft 88 kts 291°
2026-04-26 18:35 54.08016 9.95375 357 ft 67 kts 251°
2026-04-26 18:36 54.07988 9.94675 88 ft 50 kts 268°
2026-04-26 18:36 54.07951 9.94191 70 ft 43 kts 268°
2026-04-26 18:36 54.07860 9.93584 143 ft 61 kts 261°
2026-04-26 18:36 54.07871 9.92895 449 ft 64 kts 323°
2026-04-26 18:37 54.08414 9.92875 576 ft 92 kts 11°
2026-04-26 18:37 54.08602 9.93832 832 ft 105 kts 77°
2026-04-26 18:37 54.08946 9.95061 905 ft 117 kts 60°
2026-04-26 18:37 54.09295 9.96242 962 ft 96 kts 68°
2026-04-26 18:38 54.09035 9.96969 862 ft 82 kts 180°
2026-04-26 18:38 54.08525 9.96812 806 ft 72 kts 204°
2026-04-26 18:38 54.08161 9.96288 618 ft 71 kts 256°
2026-04-26 18:38 54.08076 9.95489 320 ft 65 kts 261°
2026-04-26 18:39 54.08001 9.94783 119 ft 57 kts 264°
2026-04-26 18:39 54.07951 9.94240 67 ft 37 kts 261°
2026-04-26 18:39 54.07877 9.93583 154 ft 66 kts 262°
2026-04-26 18:39 54.07824 9.92834 494 ft 61 kts 296°
2026-04-26 18:40 54.08337 9.92896 560 ft 101 kts 38°
2026-04-26 18:40 54.08423 9.94075 644 ft 125 kts 92°
2026-04-26 18:40 54.08654 9.95473 685 ft 125 kts 61°
2026-04-26 18:40 54.09109 9.96754 713 ft 120 kts 55°
2026-04-26 18:41 54.09177 9.97795 831 ft 83 kts 140°
2026-04-26 18:41 54.08710 9.97630 701 ft 72 kts 217°
2026-04-26 18:41 54.08323 9.97131 654 ft 67 kts 249°
2026-04-26 18:41 54.08191 9.96354 422 ft 67 kts 261°
2026-04-26 18:42 54.08095 9.95682 273 ft 55 kts 263°
2026-04-26 18:42 54.08022 9.95058 180 ft 53 kts 266°
2026-04-26 18:42 54.07969 9.94444 70 ft 46 kts 264°
2026-04-26 18:42 54.07930 9.94036 65 ft 25 kts 261°
2026-04-26 18:43 54.07923 9.93980 70 ft 0 kts 255°